Grove City, OH

7:58 AM EST on February 06, 2016 (GMT -0500)
Bolton

Weather History for KTZR - November, 2012

Change the Weather History Date:

Thursday, November 29, 2012

  Actual Average (WUND) Record (WUND)
Temperature  
Mean Temperature 32 °F -  
Max Temperature 48 °F - - (-1)
Min Temperature 19 °F - - (-1)
Degree Days  
Heating Degree Days 32    
Moisture  
Dew Point 22 °F    
Average Humidity 74    
Maximum Humidity 93    
Minimum Humidity 37    
Precipitation  
Precipitation 0.00 in - - ()
Sea Level Pressure  
Sea Level Pressure 30.33 in    
Wind  
Wind Speed 4 mph (South)    
Max Wind Speed 14 mph    
Max Gust Speed -    
Visibility 9 miles    
Events      
Averages and records for this station are not official NWS values.
T = Trace of Precipitation, MM = Missing Value Source: NWS Daily Summary

Daily Weather History Graph

Daily Weather History Graph

Search for Another Location

Airport or City:

Trip Planner

Search our weather history database for the weather conditions in past years. The results will help you decide how hot, cold, wet, or windy it might be!

Date:

Astronomy

Nov. 29, 2012 Rise Set
Actual Time 7:33 AM EST 5:08 PM EST
Civil Twilight 7:03 AM EST 5:38 PM EST
Nautical Twilight 6:30 AM EST 6:11 PM EST
Astronomical Twilight 5:57 AM EST 6:44 PM EST
Moon 6:10 PM EST (11/29) 8:19 AM EST (11/29)
Length of Visible Light 10h 34m
Length of Day
9h 35m
Full, 99% of the Moon is Illuminated
Nov 29
Full
Dec 6
Last Quarter
Dec 13
New
Dec 20
First Quarter
Dec 28
Full

Hourly Weather History & Observations

Time (EST) Temp. Windchill Dew Point Humidity Pressure Visibility Wind Dir Wind Speed Gust Speed Precip Events Conditions
12:15 AM 27.0 °F 23.0 °F 21.2 °F 79% 30.37 in 10.0 mi SSW 3.5 mph - N/A   Clear
12:35 AM 26.6 °F - 20.8 °F 79% 30.37 in 10.0 mi North - - N/A   Clear
12:55 AM 26.2 °F 20.7 °F 20.8 °F 80% 30.37 in 10.0 mi SSW 4.6 mph - N/A   Clear
1:15 AM 24.8 °F 19.1 °F 20.3 °F 83% 30.36 in 10.0 mi SSW 4.6 mph - N/A   Clear
1:35 AM 24.6 °F 18.8 °F 20.3 °F 84% 30.36 in 10.0 mi SSW 4.6 mph - N/A   Clear
1:55 AM 24.6 °F - 20.3 °F 84% 30.37 in 10.0 mi North - - N/A   Clear
2:15 AM 24.3 °F - 20.5 °F 85% 30.37 in 7.0 mi North - - N/A   Clear
2:35 AM 24.3 °F - 19.9 °F 84% 30.38 in 10.0 mi North - - N/A   Clear
2:55 AM 23.7 °F - 19.9 °F 85% 30.38 in 7.0 mi Calm Calm - N/A   Clear
3:15 AM 24.3 °F - 20.3 °F 85% 30.38 in 10.0 mi North - - N/A   Clear
3:35 AM 23.9 °F - 19.9 °F 85% 30.38 in 10.0 mi North - - N/A   Clear
3:55 AM 22.3 °F 17.6 °F 19.4 °F 89% 30.38 in 7.0 mi South 3.5 mph - N/A   Clear
4:35 AM 22.3 °F 16.1 °F 19.8 °F 90% 30.37 in 7.0 mi SSE 4.6 mph - N/A   Clear
4:55 AM 21.9 °F - 19.0 °F 89% 30.38 in 7.0 mi North - - N/A   Clear
5:15 AM 22.8 °F - 19.9 °F 89% 30.38 in 7.0 mi North - - N/A   Clear
5:35 AM 22.1 °F - 19.8 °F 91% 30.38 in 7.0 mi North - - N/A   Clear
5:55 AM 20.1 °F - 18.0 °F 91% 30.38 in 5.0 mi Calm Calm - N/A   Clear
6:15 AM 20.8 °F 14.4 °F 19.2 °F 93% 30.37 in 5.0 mi SSE 4.6 mph - N/A   Clear
6:35 AM 21.7 °F 15.5 °F 19.6 °F 91% 30.38 in 5.0 mi South 4.6 mph - N/A   Clear
6:55 AM 20.7 °F - 18.5 °F 91% 30.39 in 5.0 mi North - - N/A   Clear
7:05 AM 19.4 °F 14.3 °F 17.6 °F 93% 30.39 in 7.0 mi South 3.5 mph - N/A   Clear
7:15 AM 20.3 °F - 18.1 °F 91% 30.39 in 7.0 mi North - - N/A   Clear
9:55 AM 32.0 °F 28.7 °F 26.6 °F 80% 30.39 in 7.0 mi South 3.5 mph - N/A   Clear
10:55 AM 37.4 °F 32.8 °F 26.6 °F 65% 30.39 in 10.0 mi SSW 5.8 mph - N/A   Clear
11:50 AM 42.8 °F 36.6 °F 28.4 °F 57% 30.36 in 10.0 mi SSW 11.5 mph - N/A   Clear
12:50 PM 44.6 °F 38.1 °F 24.8 °F 46% 30.33 in 10.0 mi South 13.8 mph - N/A   Clear
1:50 PM 46.4 °F 41.5 °F 21.2 °F 37% 30.30 in 10.0 mi South 10.4 mph - N/A   Clear
2:50 PM 46.4 °F 41.1 °F 23.0 °F 40% 30.27 in 10.0 mi South 11.5 mph - N/A   Clear
3:50 PM 46.4 °F 41.1 °F 23.0 °F 40% 30.26 in 10.0 mi South 11.5 mph - N/A   Clear
4:50 PM 42.8 °F 38.6 °F 23.0 °F 46% 30.25 in 10.0 mi South 6.9 mph - N/A   Clear
5:50 PM 39.2 °F 35.9 °F 23.0 °F 52% 30.26 in 10.0 mi South 4.6 mph - N/A   Clear
6:50 PM 37.4 °F 32.1 °F 23.0 °F 56% 30.27 in 10.0 mi SSW 6.9 mph - N/A   Clear
8:15 PM 34.0 °F 31.0 °F 23.2 °F 65% 30.26 in 10.0 mi SSE 3.5 mph - N/A   Clear
8:35 PM 33.3 °F - 23.9 °F 69% 30.25 in 10.0 mi Calm Calm - N/A   Clear
8:55 PM 34.7 °F - 23.9 °F 65% 30.25 in 10.0 mi Calm Calm - N/A   Clear
9:15 PM 33.8 °F - 23.7 °F 67% 30.26 in 10.0 mi Calm Calm - N/A   Clear
9:35 PM 34.7 °F - 24.1 °F 65% 30.26 in 10.0 mi Calm Calm - N/A   Scattered Clouds
9:55 PM 33.8 °F - 23.9 °F 67% 30.26 in 10.0 mi Calm Calm - N/A   Scattered Clouds
10:15 PM 31.8 °F - 23.4 °F 71% 30.25 in 10.0 mi Calm Calm - N/A   Scattered Clouds
10:35 PM 31.1 °F - 23.9 °F 75% 30.26 in 10.0 mi Calm Calm - N/A   Clear
10:55 PM 32.4 °F - 24.1 °F 72% 30.26 in 10.0 mi Calm Calm - N/A   Scattered Clouds
11:15 PM 33.8 °F - 24.1 °F 68% 30.25 in 10.0 mi Calm Calm - N/A   Overcast
11:35 PM 34.2 °F - 27.5 °F 77% 30.26 in 10.0 mi Calm Calm - N/A   Overcast
11:55 PM 35.2 °F - 27.0 °F 72% 30.26 in 10.0 mi Calm Calm - N/A   Overcast